Fairacres, NM

8:12 AM MDT on September 28, 2016 (GMT -0600)
Las Cruces International

Weather History for KLRU - May, 2014

Change the Weather History Date:

Monday, May 26, 2014

  Actual Average Record
Temperature  
Mean Temperature 70 °F -  
Max Temperature 82 °F 88 °F 96 °F (2001)
Min Temperature 59 °F 59 °F 50 °F (1997)
Cooling Degree Days 6    
Growing Degree Days 20 (Base 50)    
Moisture  
Dew Point 39 °F    
Average Humidity 32    
Maximum Humidity 51    
Minimum Humidity 19    
Precipitation  
Precipitation 0.00 in - - ()
Sea Level Pressure  
Sea Level Pressure 30.07 in    
Wind  
Wind Speed 6 mph (NNE)    
Max Wind Speed 22 mph    
Max Gust Speed 29 mph    
Visibility 10 miles    
Events      
Averages and records for this station are not official NWS values.
T = Trace of Precipitation, MM = Missing Value Source: NWS Daily Summary

Daily Weather History Graph

Daily Weather History Graph

Search for Another Location

Airport or City:

Trip Planner

Search our weather history database for the weather conditions in past years. The results will help you decide how hot, cold, wet, or windy it might be!

Date:

Astronomy

May. 26, 2014 Rise Set
Actual Time 6:03 AM MDT 8:06 PM MDT
Civil Twilight 5:36 AM MDT 8:33 PM MDT
Nautical Twilight 5:02 AM MDT 9:07 PM MDT
Astronomical Twilight 4:26 AM MDT 9:43 PM MDT
Moon 4:39 AM MDT (5/26) 6:18 PM MDT (5/26)
Length of Visible Light 14h 57m
Length of Day
14h 02m
Waning Crescent, 4% of the Moon is Illuminated
May 26
Waning Crescent
May 28
New
Jun 5
First Quarter
Jun 12
Full
Jun 19
Last Quarter

Hourly Weather History & Observations

Time (MDT) Temp. Dew Point Humidity Pressure Visibility Wind Dir Wind Speed Gust Speed Precip Events Conditions
12:15 AM 63.5 °F 35.6 °F 35% 30.06 in 10.0 mi North 5.8 mph - N/A   Clear
12:35 AM 65.3 °F 36.1 °F 34% 30.05 in 10.0 mi NNE 6.9 mph - N/A   Clear
12:55 AM 65.5 °F 36.7 °F 35% 30.06 in 10.0 mi North 9.2 mph - N/A   Clear
1:15 AM 65.1 °F 36.9 °F 35% 30.05 in 10.0 mi North 5.8 mph - N/A   Mostly Cloudy
1:35 AM 65.5 °F 37.0 °F 35% 30.05 in 10.0 mi NNE 4.6 mph - N/A   Mostly Cloudy
1:55 AM 65.3 °F 36.7 °F 35% 30.05 in 10.0 mi NNE 3.5 mph - N/A   Mostly Cloudy
2:15 AM 64.9 °F 36.5 °F 35% 30.04 in 10.0 mi NNE 3.5 mph - N/A   Scattered Clouds
2:35 AM 63.9 °F 36.3 °F 36% 30.04 in 10.0 mi Calm Calm - N/A   Scattered Clouds
2:55 AM 62.1 °F 35.6 °F 37% 30.04 in 10.0 mi Calm Calm - N/A   Mostly Cloudy
3:15 AM 59.4 °F 35.6 °F 41% 30.05 in 10.0 mi NNW 6.9 mph - N/A   Clear
3:35 AM 59.7 °F 36.9 °F 43% 30.05 in 10.0 mi NNW 4.6 mph - N/A   Scattered Clouds
3:55 AM 60.8 °F 37.6 °F 42% 30.06 in 10.0 mi NW 6.9 mph - N/A   Clear
4:15 AM 61.3 °F 37.4 °F 41% 30.05 in 10.0 mi Calm Calm - N/A   Mostly Cloudy
4:35 AM 61.3 °F 37.4 °F 41% 30.05 in 10.0 mi NNW 3.5 mph - N/A   Overcast
4:55 AM 61.7 °F 37.2 °F 40% 30.06 in 10.0 mi West 5.8 mph - N/A   Overcast
5:15 AM 61.9 °F 37.6 °F 41% 30.06 in 10.0 mi NW 3.5 mph - N/A   Overcast
5:35 AM 62.6 °F 37.8 °F 40% 30.06 in 10.0 mi Calm Calm - N/A   Overcast
5:55 AM 61.9 °F 37.9 °F 41% 30.07 in 10.0 mi NNE 5.8 mph - N/A   Mostly Cloudy
6:15 AM 62.6 °F 39.2 °F 42% 30.08 in 10.0 mi NNE 10.4 mph - N/A   Scattered Clouds
6:35 AM 62.1 °F 42.1 °F 48% 30.09 in 10.0 mi NNE 10.4 mph - N/A   Mostly Cloudy
6:55 AM 61.7 °F 43.3 °F 51% 30.09 in 10.0 mi NNE 4.6 mph - N/A   Overcast
7:15 AM 62.6 °F 43.0 °F 49% 30.11 in 10.0 mi North 11.5 mph - N/A   Overcast
7:35 AM 63.0 °F 43.5 °F 49% 30.11 in 10.0 mi NNE 9.2 mph - N/A   Overcast
7:55 AM 62.8 °F 44.4 °F 51% 30.11 in 10.0 mi NE 8.1 mph - N/A   Overcast
8:15 AM 63.9 °F 45.1 °F 51% 30.11 in 10.0 mi NNE 8.1 mph - N/A   Scattered Clouds
8:35 AM 64.9 °F 45.0 °F 48% 30.12 in 10.0 mi NNE 6.9 mph - N/A   Clear
9:15 AM 65.8 °F 45.1 °F 47% 30.12 in 10.0 mi NE 6.9 mph - N/A   Overcast
9:35 AM 66.6 °F 45.0 °F 46% 30.12 in 10.0 mi NE 4.6 mph - N/A   Overcast
9:55 AM 68.0 °F 44.8 °F 43% 30.12 in 10.0 mi NE 6.9 mph - N/A   Overcast
10:15 AM 68.9 °F 44.2 °F 41% 30.12 in 10.0 mi East 4.6 mph - N/A   Scattered Clouds
10:35 AM 69.8 °F 43.3 °F 38% 30.12 in 10.0 mi ESE 4.6 mph - N/A   Clear
10:55 AM 71.8 °F 42.1 °F 34% 30.12 in 10.0 mi ENE 3.5 mph - N/A   Clear
11:15 AM 73.4 °F 39.7 °F 30% 30.11 in 10.0 mi North 4.6 mph - N/A   Clear
11:35 AM 75.6 °F 39.2 °F 27% 30.11 in 10.0 mi NW 6.9 mph - N/A   Clear
11:55 AM 77.4 °F 37.8 °F 24% 30.10 in 10.0 mi WNW 15.0 mph 26.5 mph N/A   Clear
12:15 PM 78.3 °F 36.9 °F 22% 30.10 in 10.0 mi West 12.7 mph 18.4 mph N/A   Clear
12:35 PM 79.2 °F 35.6 °F 21% 30.09 in 10.0 mi West 3.5 mph - N/A   Scattered Clouds
12:55 PM 80.2 °F 35.2 °F 20% 30.08 in 10.0 mi West 13.8 mph 26.5 mph N/A   Scattered Clouds
1:15 PM 80.8 °F 35.2 °F 19% 30.07 in 10.0 mi WSW 12.7 mph - N/A   Scattered Clouds
1:35 PM 79.7 °F 39.2 °F 23% 30.06 in 10.0 mi NNE 15.0 mph - N/A   Mostly Cloudy
1:55 PM 79.5 °F 41.0 °F 25% 30.07 in 10.0 mi NNE 21.9 mph 28.8 mph N/A   Scattered Clouds
2:15 PM 77.9 °F 41.9 °F 28% 30.08 in 10.0 mi NNE 17.3 mph 27.6 mph N/A   Scattered Clouds
2:35 PM 78.6 °F 41.5 °F 27% 30.07 in 10.0 mi NNE 17.3 mph 25.3 mph N/A   Clear
3:15 PM 79.5 °F 41.0 °F 25% 30.06 in 10.0 mi NNE 10.4 mph 16.1 mph N/A   Clear
3:35 PM 79.7 °F 40.5 °F 25% 30.06 in 10.0 mi NE 10.4 mph 18.4 mph N/A   Clear
3:55 PM 80.6 °F 39.9 °F 23% 30.04 in 10.0 mi NNE 6.9 mph - N/A   Clear
4:15 PM 81.0 °F 38.7 °F 22% 30.03 in 10.0 mi ENE 8.1 mph - N/A   Clear
4:35 PM 82.9 °F 38.5 °F 21% 30.03 in 10.0 mi North 8.1 mph - N/A   Clear
4:55 PM 82.2 °F 40.8 °F 23% 30.03 in 10.0 mi NE 6.9 mph 17.3 mph N/A   Clear
5:15 PM 82.9 °F 40.1 °F 22% 30.03 in 10.0 mi NNE 11.5 mph - N/A   Clear
5:35 PM 81.7 °F 39.7 °F 22% 30.03 in 10.0 mi ENE 5.8 mph - N/A   Clear
5:55 PM 82.9 °F 39.6 °F 21% 30.03 in 10.0 mi NNE 8.1 mph - N/A   Clear
6:15 PM 82.4 °F 39.4 °F 22% 30.02 in 10.0 mi NE 9.2 mph - N/A   Clear
6:35 PM 82.4 °F 39.4 °F 22% 30.03 in 10.0 mi NNE 8.1 mph - N/A   Clear
6:55 PM 82.4 °F 39.2 °F 21% 30.03 in 10.0 mi NNE 8.1 mph - N/A   Clear
7:15 PM 81.3 °F 38.5 °F 22% 30.03 in 10.0 mi NE 5.8 mph - N/A   Scattered Clouds
7:35 PM 80.4 °F 38.3 °F 22% 30.03 in 10.0 mi NNE 9.2 mph - N/A   Mostly Cloudy
7:55 PM 78.8 °F 37.6 °F 23% 30.04 in 10.0 mi NNE 6.9 mph - N/A   Scattered Clouds
8:15 PM 77.7 °F 37.4 °F 23% 30.05 in 10.0 mi NE 4.6 mph - N/A   Mostly Cloudy
8:35 PM 76.6 °F 36.7 °F 24% 30.06 in 10.0 mi NE 3.5 mph - N/A   Scattered Clouds
8:55 PM 74.7 °F 36.5 °F 25% 30.06 in 10.0 mi NE 3.5 mph - N/A   Clear
9:15 PM 73.4 °F 36.7 °F 26% 30.06 in 10.0 mi East 4.6 mph - N/A   Clear
9:35 PM 71.8 °F 35.4 °F 26% 30.07 in 10.0 mi Calm Calm - N/A   Scattered Clouds
9:55 PM 70.0 °F 33.6 °F 26% 30.08 in 10.0 mi Calm Calm - N/A   Mostly Cloudy
10:15 PM 71.6 °F 36.3 °F 28% 30.09 in 10.0 mi SSE 8.1 mph - N/A   Scattered Clouds
10:35 PM 71.4 °F 36.9 °F 28% 30.09 in 10.0 mi SSE 5.8 mph - N/A   Scattered Clouds
10:55 PM 70.7 °F 36.5 °F 29% 30.10 in 10.0 mi SSE 4.6 mph - N/A   Clear
11:15 PM 69.4 °F 36.5 °F 30% 30.10 in 10.0 mi SSE 4.6 mph - N/A   Scattered Clouds
11:35 PM 69.1 °F 36.0 °F 30% 30.10 in 10.0 mi Calm Calm - N/A   Scattered Clouds